JBU1058 MKJP-KFLL

Flight info

Callsign JBU1058
Flight time 1h 36m
Altitude 36000
Route OTUNU UL417 BORDO OLAHS3
Aircraft A21N/M-SDE3FGHIRWY/LB1

Departure

Time 2026-05-07 02:33
Airport Norman Manley International Airport (MKJP)

Arrival

Time 2026-05-07 04:10
Airport Fort Lauderdale Hollywood International Airport (KFLL)
Time Latitude Longitude Altitude Speed Heading
2026-05-07 02:16 17.93567 -76.77977 31 ft 0 kts 354°
2026-05-07 02:24 17.93565 -76.77977 31 ft 1 kts 354°
2026-05-07 02:24 17.93555 -76.77976 31 ft 1 kts 354°
2026-05-07 02:25 17.93542 -76.77971 31 ft 2 kts 307°
2026-05-07 02:25 17.93537 -76.77956 31 ft 2 kts 262°
2026-05-07 02:25 17.93544 -76.77942 32 ft 1 kts 217°
2026-05-07 02:25 17.93549 -76.77939 32 ft 1 kts 202°
2026-05-07 02:26 17.93552 -76.77937 32 ft 0 kts 207°
2026-05-07 02:27 17.93540 -76.77943 32 ft 3 kts 205°
2026-05-07 02:27 17.93514 -76.77955 31 ft 4 kts 201°
2026-05-07 02:27 17.93481 -76.77969 31 ft 5 kts 201°
2026-05-07 02:27 17.93449 -76.77988 31 ft 4 kts 239°
2026-05-07 02:28 17.93453 -76.78031 30 ft 8 kts 289°
2026-05-07 02:28 17.93481 -76.78108 30 ft 12 kts 291°
2026-05-07 02:28 17.93516 -76.78199 30 ft 13 kts 291°
2026-05-07 02:28 17.93553 -76.78295 30 ft 14 kts 291°
2026-05-07 02:29 17.93594 -76.78403 28 ft 15 kts 292°
2026-05-07 02:29 17.93635 -76.78507 29 ft 15 kts 291°
2026-05-07 02:29 17.93674 -76.78612 30 ft 15 kts 291°
2026-05-07 02:29 17.93717 -76.78716 30 ft 16 kts 292°
2026-05-07 02:30 17.93759 -76.78828 30 ft 16 kts 291°
2026-05-07 02:30 17.93802 -76.78938 30 ft 16 kts 293°
2026-05-07 02:30 17.93845 -76.79048 30 ft 16 kts 291°
2026-05-07 02:30 17.93888 -76.79160 30 ft 16 kts 292°
2026-05-07 02:31 17.93931 -76.79272 30 ft 16 kts 291°
2026-05-07 02:31 17.93974 -76.79382 30 ft 16 kts 292°
2026-05-07 02:31 17.94017 -76.79494 30 ft 16 kts 292°
2026-05-07 02:31 17.94060 -76.79605 30 ft 16 kts 292°
2026-05-07 02:32 17.94094 -76.79722 30 ft 16 kts 282°
2026-05-07 02:32 17.94113 -76.79846 28 ft 17 kts 264°
2026-05-07 02:32 17.94041 -76.79919 28 ft 10 kts 179°
2026-05-07 02:32 17.93995 -76.79860 30 ft 21 kts 112°
2026-05-07 02:33 17.93836 -76.79449 30 ft 97 kts 112°
2026-05-07 02:33 17.93501 -76.78577 47 ft 154 kts 112°
2026-05-07 02:33 17.93082 -76.77523 615 ft 156 kts 112°
2026-05-07 02:33 17.92661 -76.76489 1260 ft 159 kts 111°
2026-05-07 02:34 17.92210 -76.75391 1779 ft 167 kts 111°
2026-05-07 02:34 17.91740 -76.74245 2113 ft 176 kts 111°
2026-05-07 02:34 17.91259 -76.73023 2422 ft 187 kts 110°
2026-05-07 02:34 17.90758 -76.71725 2688 ft 202 kts 110°
2026-05-07 02:35 17.90200 -76.70298 2966 ft 219 kts 110°
2026-05-07 02:35 17.89529 -76.68771 3217 ft 241 kts 122°
2026-05-07 02:35 17.88179 -76.67622 3534 ft 264 kts 158°
2026-05-07 02:35 17.86343 -76.67505 4075 ft 277 kts 192°
2026-05-07 02:36 17.84658 -76.68487 4739 ft 284 kts 225°
2026-05-07 02:36 17.83719 -76.70299 5399 ft 288 kts 259°
2026-05-07 02:36 17.83846 -76.72369 6033 ft 288 kts 293°
2026-05-07 02:36 17.84996 -76.74040 6624 ft 285 kts 325°
2026-05-07 02:37 17.86739 -76.74988 7276 ft 283 kts 341°
2026-05-07 02:37 17.88591 -76.75729 7868 ft 287 kts 341°
2026-05-07 02:37 17.90457 -76.76533 8449 ft 291 kts 339°
2026-05-07 02:37 17.92325 -76.77366 9025 ft 293 kts 342°
2026-05-07 02:38 17.94245 -76.78016 9581 ft 294 kts 348°
2026-05-07 02:38 17.96254 -76.78494 10137 ft 296 kts 349°
2026-05-07 02:38 17.98309 -76.78942 10515 ft 306 kts 350°
2026-05-07 02:38 18.00457 -76.79408 10782 ft 320 kts 350°
2026-05-07 02:39 18.02684 -76.79894 11049 ft 332 kts 349°
2026-05-07 02:39 18.04972 -76.80399 11502 ft 337 kts 349°
2026-05-07 02:39 18.07272 -76.80907 12053 ft 339 kts 349°
2026-05-07 02:39 18.09592 -76.81424 12579 ft 341 kts 348°
2026-05-07 02:40 18.11902 -76.81938 13124 ft 343 kts 348°
2026-05-07 02:40 18.14260 -76.82464 13634 ft 345 kts 348°
2026-05-07 02:40 18.16622 -76.82993 14134 ft 346 kts 348°
2026-05-07 02:40 18.18963 -76.83516 14622 ft 348 kts 348°
2026-05-07 02:41 18.21356 -76.84050 15120 ft 349 kts 348°
2026-05-07 02:41 18.23742 -76.84583 15597 ft 351 kts 349°
2026-05-07 02:41 18.26143 -76.85117 16036 ft 353 kts 349°
2026-05-07 02:41 18.28528 -76.85649 16480 ft 355 kts 349°
2026-05-07 02:42 18.30962 -76.86192 16943 ft 356 kts 349°
2026-05-07 02:42 18.33397 -76.86736 17368 ft 357 kts 349°
2026-05-07 02:42 18.35823 -76.87278 17778 ft 359 kts 349°
2026-05-07 02:42 18.38275 -76.87825 18196 ft 360 kts 349°
2026-05-07 02:43 18.40744 -76.88377 18607 ft 361 kts 349°
2026-05-07 02:43 18.43208 -76.88953 19012 ft 363 kts 348°
2026-05-07 02:43 18.45677 -76.89606 19396 ft 364 kts 348°
2026-05-07 02:43 18.48120 -76.90263 19744 ft 366 kts 348°
2026-05-07 02:44 18.50599 -76.90930 20116 ft 367 kts 348°
2026-05-07 02:44 18.53092 -76.91602 20480 ft 368 kts 348°
2026-05-07 02:44 18.55576 -76.92271 20836 ft 369 kts 348°
2026-05-07 02:44 18.58075 -76.92944 21183 ft 370 kts 348°
2026-05-07 02:45 18.60577 -76.93617 21514 ft 371 kts 348°
2026-05-07 02:45 18.63092 -76.94295 21838 ft 372 kts 348°
2026-05-07 02:45 18.65620 -76.94975 22144 ft 374 kts 348°
2026-05-07 02:45 18.68150 -76.95657 22458 ft 375 kts 348°
2026-05-07 02:46 18.70694 -76.96342 22758 ft 377 kts 348°
2026-05-07 02:46 18.73257 -76.97031 23045 ft 380 kts 348°
2026-05-07 02:46 18.75828 -76.97724 23337 ft 382 kts 348°
2026-05-07 02:46 18.78375 -76.98411 23626 ft 383 kts 348°
2026-05-07 02:47 18.80998 -76.99118 23929 ft 385 kts 348°
2026-05-07 02:47 18.83603 -76.99822 24221 ft 387 kts 348°
2026-05-07 02:47 18.86217 -77.00527 24515 ft 389 kts 348°
2026-05-07 02:47 18.88856 -77.01240 24797 ft 391 kts 347°
2026-05-07 02:48 18.91497 -77.01954 25077 ft 393 kts 347°
2026-05-07 02:48 18.94156 -77.02673 25354 ft 395 kts 347°
2026-05-07 02:48 18.96823 -77.03394 25629 ft 396 kts 347°
2026-05-07 02:48 18.99500 -77.04118 25894 ft 398 kts 347°
2026-05-07 02:49 19.02188 -77.04846 26161 ft 400 kts 347°
2026-05-07 02:49 19.04891 -77.05579 26415 ft 402 kts 347°
2026-05-07 02:49 19.07609 -77.06314 26661 ft 404 kts 347°
2026-05-07 02:49 19.10374 -77.07063 26915 ft 406 kts 347°
2026-05-07 02:50 19.13143 -77.07815 27191 ft 408 kts 347°
2026-05-07 02:50 19.15870 -77.08554 27453 ft 409 kts 347°
2026-05-07 02:50 19.18650 -77.09308 27714 ft 411 kts 346°
2026-05-07 02:50 19.21432 -77.10062 27975 ft 412 kts 346°
2026-05-07 02:51 19.24224 -77.10821 28243 ft 414 kts 346°
2026-05-07 02:51 19.27020 -77.11579 28515 ft 415 kts 346°
2026-05-07 02:51 19.29827 -77.12341 28786 ft 416 kts 346°
2026-05-07 02:51 19.32635 -77.13105 29047 ft 418 kts 346°
2026-05-07 02:52 19.35446 -77.13870 29304 ft 419 kts 346°
2026-05-07 02:52 19.38285 -77.14642 29559 ft 421 kts 346°
2026-05-07 02:52 19.41122 -77.15414 29829 ft 422 kts 346°
2026-05-07 02:52 19.43977 -77.16193 30107 ft 422 kts 346°
2026-05-07 02:53 19.46824 -77.16967 30378 ft 423 kts 346°
2026-05-07 02:53 19.49686 -77.17746 30649 ft 424 kts 346°
2026-05-07 02:53 19.52551 -77.18527 30903 ft 425 kts 346°
2026-05-07 02:53 19.55429 -77.19310 31165 ft 426 kts 346°
2026-05-07 02:54 19.58310 -77.20095 31429 ft 427 kts 346°
2026-05-07 02:54 19.61198 -77.20882 31688 ft 427 kts 346°
2026-05-07 02:54 19.64057 -77.21661 31940 ft 428 kts 346°
2026-05-07 02:54 19.66951 -77.22451 32179 ft 428 kts 346°
2026-05-07 02:55 19.69853 -77.23243 32465 ft 428 kts 346°
2026-05-07 02:55 19.72715 -77.24025 32763 ft 427 kts 346°
2026-05-07 02:55 19.75600 -77.24814 33034 ft 427 kts 346°
2026-05-07 02:55 19.78508 -77.25608 33064 ft 431 kts 346°
2026-05-07 02:56 19.84383 -77.27214 33080 ft 440 kts 346°
2026-05-07 02:56 19.90361 -77.28849 33089 ft 444 kts 346°
2026-05-07 02:57 19.96377 -77.30498 33095 ft 445 kts 346°
2026-05-07 02:57 20.02360 -77.32137 33101 ft 444 kts 346°
2026-05-07 02:58 20.08332 -77.33774 33094 ft 443 kts 346°
2026-05-07 02:58 20.14329 -77.35420 33088 ft 443 kts 346°
2026-05-07 02:59 20.20328 -77.37069 33079 ft 443 kts 346°
2026-05-07 02:59 20.26309 -77.38713 33072 ft 444 kts 346°
2026-05-07 03:00 20.32295 -77.40361 33073 ft 443 kts 346°
2026-05-07 03:00 20.38260 -77.42003 33070 ft 443 kts 346°
2026-05-07 03:01 20.44246 -77.43652 33070 ft 443 kts 346°
2026-05-07 03:01 20.50192 -77.45293 33072 ft 443 kts 346°
2026-05-07 03:02 20.56180 -77.46946 33073 ft 443 kts 346°
2026-05-07 03:02 20.62158 -77.48598 33072 ft 444 kts 346°
2026-05-07 03:03 20.68152 -77.50253 33074 ft 444 kts 345°
2026-05-07 03:03 20.74142 -77.51911 33077 ft 444 kts 345°
2026-05-07 03:04 20.80115 -77.53567 33079 ft 444 kts 345°
2026-05-07 03:04 20.86125 -77.55233 33080 ft 444 kts 345°
2026-05-07 03:05 20.92098 -77.56889 33082 ft 444 kts 345°
2026-05-07 03:05 20.98106 -77.58558 33084 ft 444 kts 345°
2026-05-07 03:06 21.04103 -77.60224 33086 ft 444 kts 345°
2026-05-07 03:06 21.10095 -77.61891 33088 ft 444 kts 345°
2026-05-07 03:07 21.16054 -77.63550 33092 ft 443 kts 345°
2026-05-07 03:07 21.22056 -77.65222 33095 ft 443 kts 345°
2026-05-07 03:08 21.28038 -77.66889 33094 ft 443 kts 345°
2026-05-07 03:08 21.34027 -77.68560 33098 ft 443 kts 345°
2026-05-07 03:09 21.39988 -77.70225 33094 ft 442 kts 345°
2026-05-07 03:09 21.45925 -77.71884 33095 ft 442 kts 345°
2026-05-07 03:10 21.51924 -77.73563 33094 ft 442 kts 345°
2026-05-07 03:10 21.57861 -77.75224 33091 ft 442 kts 345°
2026-05-07 03:11 21.63823 -77.76895 33092 ft 442 kts 345°
2026-05-07 03:11 21.69781 -77.78566 33087 ft 442 kts 345°
2026-05-07 03:12 21.75740 -77.80239 33084 ft 442 kts 345°
2026-05-07 03:12 21.81688 -77.81910 33082 ft 441 kts 345°
2026-05-07 03:13 21.87630 -77.83581 33083 ft 441 kts 345°
2026-05-07 03:13 21.93580 -77.85255 33081 ft 442 kts 345°
2026-05-07 03:14 21.99529 -77.86930 33081 ft 442 kts 345°
2026-05-07 03:15 22.08463 -77.89449 33078 ft 441 kts 345°
2026-05-07 03:15 22.14432 -77.91135 33079 ft 441 kts 345°
2026-05-07 03:16 22.20380 -77.92814 33078 ft 440 kts 345°
2026-05-07 03:16 22.26308 -77.94492 33078 ft 440 kts 345°
2026-05-07 03:17 22.32241 -77.96171 33078 ft 441 kts 345°
2026-05-07 03:17 22.38184 -77.97855 33078 ft 441 kts 345°
2026-05-07 03:18 22.44128 -77.99539 33078 ft 441 kts 344°
2026-05-07 03:18 22.50050 -78.01219 33078 ft 440 kts 344°
2026-05-07 03:19 22.55981 -78.02904 33078 ft 441 kts 344°
2026-05-07 03:19 22.61927 -78.04595 33078 ft 441 kts 344°
2026-05-07 03:20 22.67892 -78.06293 33078 ft 441 kts 344°
2026-05-07 03:20 22.73817 -78.07983 33078 ft 440 kts 344°
2026-05-07 03:21 22.79744 -78.09676 33078 ft 440 kts 344°
2026-05-07 03:21 22.85669 -78.11437 33078 ft 441 kts 343°
2026-05-07 03:22 22.91596 -78.13210 33077 ft 440 kts 343°
2026-05-07 03:22 22.97500 -78.14976 33078 ft 441 kts 343°
2026-05-07 03:23 23.03429 -78.16751 33078 ft 441 kts 343°
2026-05-07 03:23 23.09342 -78.18521 33078 ft 440 kts 343°
2026-05-07 03:24 23.15283 -78.20301 33078 ft 440 kts 343°
2026-05-07 03:24 23.21171 -78.22068 33077 ft 440 kts 343°
2026-05-07 03:25 23.27101 -78.23849 33071 ft 441 kts 343°
2026-05-07 03:25 23.33026 -78.25629 33061 ft 441 kts 343°
2026-05-07 03:26 23.38962 -78.27413 33060 ft 441 kts 343°
2026-05-07 03:26 23.44891 -78.29198 33058 ft 441 kts 343°
2026-05-07 03:27 23.50801 -78.30978 33058 ft 441 kts 343°
2026-05-07 03:27 23.56713 -78.32760 33059 ft 441 kts 343°
2026-05-07 03:28 23.62664 -78.34557 33060 ft 441 kts 343°
2026-05-07 03:28 23.68557 -78.36337 33058 ft 441 kts 343°
2026-05-07 03:29 23.74485 -78.38129 33060 ft 441 kts 343°
2026-05-07 03:29 23.80419 -78.39927 33061 ft 441 kts 343°
2026-05-07 03:30 23.86315 -78.41714 33056 ft 441 kts 343°
2026-05-07 03:30 23.92241 -78.43507 33060 ft 441 kts 343°
2026-05-07 03:31 23.98254 -78.44916 33059 ft 442 kts 349°
2026-05-07 03:31 24.04382 -78.45676 33060 ft 444 kts 354°
2026-05-07 03:32 24.10611 -78.45813 33062 ft 445 kts 358°
2026-05-07 03:32 24.16820 -78.45778 33063 ft 446 kts 358°
2026-05-07 03:33 24.23013 -78.45737 33064 ft 446 kts 358°
2026-05-07 03:33 24.29234 -78.45697 33064 ft 446 kts 358°
2026-05-07 03:34 24.35452 -78.45658 33068 ft 445 kts 358°
2026-05-07 03:34 24.41646 -78.45619 33066 ft 445 kts 358°
2026-05-07 03:35 24.47844 -78.45603 32855 ft 444 kts 358°
2026-05-07 03:35 24.50899 -78.45597 32368 ft 438 kts 358°
2026-05-07 03:35 24.53927 -78.45591 31735 ft 435 kts 358°
2026-05-07 03:35 24.56941 -78.45586 31053 ft 434 kts 358°
2026-05-07 03:36 24.59936 -78.45579 30585 ft 428 kts 358°
2026-05-07 03:36 24.62899 -78.45573 30106 ft 423 kts 358°
2026-05-07 03:36 24.65840 -78.45567 29623 ft 418 kts 358°
2026-05-07 03:36 24.68733 -78.45560 29140 ft 414 kts 358°
2026-05-07 03:37 24.71613 -78.45554 28658 ft 410 kts 358°
2026-05-07 03:37 24.74457 -78.45548 28184 ft 407 kts 358°
2026-05-07 03:37 24.77280 -78.45541 27714 ft 403 kts 358°
2026-05-07 03:37 24.80070 -78.45534 27247 ft 399 kts 358°
2026-05-07 03:38 24.82837 -78.45528 26782 ft 396 kts 358°
2026-05-07 03:38 24.85575 -78.45522 26315 ft 393 kts 358°
2026-05-07 03:38 24.88294 -78.45519 25895 ft 388 kts 358°
2026-05-07 03:38 24.90994 -78.45531 25902 ft 389 kts 358°
2026-05-07 03:39 24.93695 -78.45548 25928 ft 390 kts 358°
2026-05-07 03:39 24.96413 -78.45563 25953 ft 391 kts 358°
2026-05-07 03:39 24.99167 -78.45577 25982 ft 392 kts 358°
2026-05-07 03:39 25.01896 -78.45591 26009 ft 392 kts 358°
2026-05-07 03:40 25.04628 -78.45605 26036 ft 392 kts 358°
2026-05-07 03:40 25.07357 -78.45618 26059 ft 392 kts 358°
2026-05-07 03:40 25.10090 -78.45631 26068 ft 391 kts 358°
2026-05-07 03:40 25.12822 -78.45644 26074 ft 391 kts 358°
2026-05-07 03:41 25.15545 -78.45657 26076 ft 391 kts 358°
2026-05-07 03:41 25.18277 -78.45670 26076 ft 391 kts 358°
2026-05-07 03:41 25.20976 -78.45683 26076 ft 391 kts 357°
2026-05-07 03:41 25.23712 -78.45697 26075 ft 391 kts 358°
2026-05-07 03:42 25.26436 -78.45710 26075 ft 391 kts 357°
2026-05-07 03:42 25.29164 -78.45722 26077 ft 391 kts 357°
2026-05-07 03:42 25.31889 -78.45735 26077 ft 391 kts 357°
2026-05-07 03:42 25.34619 -78.45749 26079 ft 391 kts 357°
2026-05-07 03:43 25.37319 -78.45987 26047 ft 387 kts 345°
2026-05-07 03:43 25.39786 -78.47132 26055 ft 384 kts 327°
2026-05-07 03:43 25.41784 -78.49043 26001 ft 386 kts 311°
2026-05-07 03:43 25.43209 -78.51573 25452 ft 391 kts 296°
2026-05-07 03:44 25.44265 -78.54349 24908 ft 389 kts 296°
2026-05-07 03:44 25.45313 -78.57089 24400 ft 387 kts 296°
2026-05-07 03:44 25.46360 -78.59816 23916 ft 383 kts 296°
2026-05-07 03:44 25.47397 -78.62521 23454 ft 380 kts 296°
2026-05-07 03:45 25.48412 -78.65170 23001 ft 377 kts 296°
2026-05-07 03:45 25.49430 -78.67828 22547 ft 374 kts 296°
2026-05-07 03:45 25.50441 -78.70470 22094 ft 371 kts 296°
2026-05-07 03:45 25.51445 -78.73090 21687 ft 366 kts 296°
2026-05-07 03:46 25.52426 -78.75656 21370 ft 359 kts 296°
2026-05-07 03:46 25.53386 -78.78170 21029 ft 354 kts 296°
2026-05-07 03:46 25.54339 -78.80662 20558 ft 353 kts 296°
2026-05-07 03:46 25.55291 -78.83152 20088 ft 352 kts 295°
2026-05-07 03:47 25.56240 -78.85640 19610 ft 351 kts 295°
2026-05-07 03:47 25.57193 -78.88139 19139 ft 350 kts 295°
2026-05-07 03:47 25.58126 -78.90591 18677 ft 348 kts 295°
2026-05-07 03:47 25.59067 -78.93063 18204 ft 348 kts 295°
2026-05-07 03:48 25.60007 -78.95534 17734 ft 347 kts 295°
2026-05-07 03:48 25.60935 -78.97974 17276 ft 346 kts 295°
2026-05-07 03:48 25.61867 -79.00433 16818 ft 345 kts 295°
2026-05-07 03:48 25.62798 -79.02885 16353 ft 345 kts 296°
2026-05-07 03:49 25.63716 -79.05314 15890 ft 345 kts 296°
2026-05-07 03:49 25.64637 -79.07765 15424 ft 345 kts 296°
2026-05-07 03:49 25.65560 -79.10222 14956 ft 344 kts 296°
2026-05-07 03:49 25.66470 -79.12646 14495 ft 344 kts 296°
2026-05-07 03:50 25.67390 -79.15101 14031 ft 344 kts 296°
2026-05-07 03:50 25.68301 -79.17531 13579 ft 343 kts 296°
2026-05-07 03:50 25.69224 -79.19993 13124 ft 342 kts 296°
2026-05-07 03:50 25.70128 -79.22405 12682 ft 341 kts 296°
2026-05-07 03:51 25.71038 -79.24831 12246 ft 340 kts 296°
2026-05-07 03:51 25.71935 -79.27228 11818 ft 338 kts 296°
2026-05-07 03:51 25.72837 -79.29639 11397 ft 337 kts 296°
2026-05-07 03:51 25.73727 -79.32041 10974 ft 335 kts 295°
2026-05-07 03:52 25.74593 -79.34397 10564 ft 333 kts 295°
2026-05-07 03:52 25.75465 -79.36774 10216 ft 328 kts 295°
2026-05-07 03:52 25.76302 -79.39063 10089 ft 316 kts 295°
2026-05-07 03:52 25.77118 -79.41299 9910 ft 307 kts 295°
2026-05-07 03:53 25.77919 -79.43481 9529 ft 306 kts 295°
2026-05-07 03:53 25.78717 -79.45655 9158 ft 305 kts 295°
2026-05-07 03:53 25.79513 -79.47827 8791 ft 303 kts 295°
2026-05-07 03:53 25.80304 -79.49991 8432 ft 301 kts 295°
2026-05-07 03:54 25.81085 -79.52125 8078 ft 298 kts 294°
2026-05-07 03:54 25.81862 -79.54253 7724 ft 296 kts 294°
2026-05-07 03:54 25.82631 -79.56361 7374 ft 293 kts 294°
2026-05-07 03:54 25.83392 -79.58446 7023 ft 291 kts 294°
2026-05-07 03:55 25.84151 -79.60515 6672 ft 288 kts 294°
2026-05-07 03:55 25.84913 -79.62541 6326 ft 286 kts 295°
2026-05-07 03:55 25.85687 -79.64556 6018 ft 281 kts 296°
2026-05-07 03:55 25.86498 -79.66464 5951 ft 269 kts 297°
2026-05-07 03:56 25.87299 -79.68323 5949 ft 264 kts 297°
2026-05-07 03:56 25.88025 -79.70006 5949 ft 261 kts 297°
2026-05-07 03:56 25.88808 -79.71819 5949 ft 259 kts 297°
2026-05-07 03:56 25.89587 -79.73631 5949 ft 258 kts 297°
2026-05-07 03:57 25.90352 -79.75420 5951 ft 258 kts 297°
2026-05-07 03:57 25.91122 -79.77226 5952 ft 258 kts 297°
2026-05-07 03:57 25.91890 -79.79026 5952 ft 258 kts 297°
2026-05-07 03:57 25.92658 -79.80832 5952 ft 258 kts 297°
2026-05-07 03:58 25.93422 -79.82626 5951 ft 258 kts 297°
2026-05-07 03:58 25.94193 -79.84436 5950 ft 257 kts 297°
2026-05-07 03:58 25.94957 -79.86231 5957 ft 263 kts 297°
2026-05-07 03:58 25.95775 -79.88150 5963 ft 279 kts 297°
2026-05-07 03:59 25.96609 -79.90112 5953 ft 281 kts 297°
2026-05-07 03:59 25.97445 -79.92079 5953 ft 281 kts 297°
2026-05-07 03:59 25.98283 -79.94025 5957 ft 280 kts 300°
2026-05-07 03:59 25.99321 -79.95841 5958 ft 278 kts 309°
2026-05-07 04:00 26.00568 -79.97482 5959 ft 278 kts 313°
2026-05-07 04:00 26.01881 -79.99096 5961 ft 278 kts 314°
2026-05-07 04:00 26.03190 -80.00689 5960 ft 279 kts 314°
2026-05-07 04:00 26.04489 -80.02278 5958 ft 279 kts 314°
2026-05-07 04:01 26.05784 -80.03869 5957 ft 279 kts 314°
2026-05-07 04:01 26.07087 -80.05475 5957 ft 279 kts 314°
2026-05-07 04:01 26.08395 -80.07091 5957 ft 278 kts 314°
2026-05-07 04:01 26.09695 -80.08698 5958 ft 278 kts 314°
2026-05-07 04:02 26.10988 -80.10297 5959 ft 278 kts 314°
2026-05-07 04:02 26.12287 -80.11903 5959 ft 278 kts 314°
2026-05-07 04:02 26.13576 -80.13500 5960 ft 278 kts 313°
2026-05-07 04:02 26.14712 -80.15229 5942 ft 280 kts 295°
2026-05-07 04:03 26.15127 -80.17360 5969 ft 284 kts 273°
2026-05-07 04:03 26.15125 -80.19542 5990 ft 285 kts 270°
2026-05-07 04:03 26.15098 -80.21767 5996 ft 286 kts 271°
2026-05-07 04:03 26.15080 -80.23977 5949 ft 287 kts 271°
2026-05-07 04:04 26.15076 -80.26190 5709 ft 286 kts 271°
2026-05-07 04:04 26.15079 -80.28384 5284 ft 287 kts 271°
2026-05-07 04:04 26.15086 -80.30574 5171 ft 275 kts 271°
2026-05-07 04:04 26.15093 -80.32649 5110 ft 261 kts 271°
2026-05-07 04:05 26.15096 -80.34611 4998 ft 253 kts 269°
2026-05-07 04:05 26.14685 -80.36494 4939 ft 250 kts 237°
2026-05-07 04:05 26.13416 -80.37709 4846 ft 238 kts 199°
2026-05-07 04:05 26.11817 -80.37827 4424 ft 236 kts 160°
2026-05-07 04:06 26.10477 -80.36817 4014 ft 233 kts 126°
2026-05-07 04:06 26.09656 -80.35281 3657 ft 233 kts 120°
2026-05-07 04:06 26.08610 -80.33910 3245 ft 237 kts 135°
2026-05-07 04:06 26.07692 -80.32411 2801 ft 239 kts 107°
2026-05-07 04:07 26.07535 -80.30584 2380 ft 233 kts 87°
2026-05-07 04:07 26.07657 -80.28852 2079 ft 220 kts 85°
2026-05-07 04:07 26.07757 -80.27213 1881 ft 200 kts 89°
2026-05-07 04:07 26.07767 -80.25727 1607 ft 188 kts 91°
2026-05-07 04:08 26.07748 -80.24313 1338 ft 177 kts 91°
2026-05-07 04:08 26.07734 -80.22990 1123 ft 163 kts 91°
2026-05-07 04:08 26.07727 -80.21783 905 ft 149 kts 90°
2026-05-07 04:08 26.07728 -80.20695 694 ft 138 kts 90°
2026-05-07 04:09 26.07718 -80.19636 544 ft 137 kts 91°
2026-05-07 04:09 26.07704 -80.18579 383 ft 137 kts 91°
2026-05-07 04:09 26.07695 -80.17511 218 ft 136 kts 91°
2026-05-07 04:09 26.07693 -80.16470 42 ft 136 kts 90°
2026-05-07 04:10 26.07688 -80.15512 12 ft 101 kts 90°
2026-05-07 04:10 26.07685 -80.14926 12 ft 43 kts 89°
2026-05-07 04:10 26.07654 -80.14662 12 ft 28 kts 110°
2026-05-07 04:10 26.07573 -80.14475 12 ft 25 kts 109°
2026-05-07 04:11 26.07558 -80.14287 12 ft 23 kts 90°
2026-05-07 04:11 26.07544 -80.14128 12 ft 13 kts 137°
2026-05-07 04:11 26.07456 -80.14088 12 ft 11 kts 173°
2026-05-07 04:11 26.07422 -80.14087 12 ft 0 kts 179°
2026-05-07 04:12 26.07419 -80.14087 12 ft 0 kts 179°